Wind_Speed
13 13 13 12 12 12 12 12 12 12 11 10 10 9 8 6 6 7 7 7 8 8 8 7 7 6 5 5 5 5 5 5 5 5 5 5 6 6 6 6 5 5 5 5 5 5 4 4 4
13 13 13 13 12 12 13 13 13 12 11 11 10 9 8 7 7 7 8 9 9 9 8 8 8 7 6 5 5 5 5 5 5 5 5 5 5 4 4 4 4 4 4 4 4 3 3 4 3
13 13 13 13 12 12 14 13 13 12 11 11 11 10 8 7 7 7 8 9 10 10 9 9 9 9 8 7 6 6 5 5 5 5 5 5 5 4 4 3 3 3 3 3 3 3 3 3 3
14 13 13 13 13 14 14 14 13 13 12 12 12 11 9 8 7 8 8 10 11 11 11 10 10 10 9 8 8 7 6 6 6 5 5 5 5 5 4 4 3 3 2 2 2 2 2 2 3
14 13 13 13 14 15 15 15 14 13 13 12 12 11 10 9 8 8 9 11 12 12 13 12 11 11 10 10 9 8 8 7 7 6 6 6 6 6 5 5 4 4 3 3 3 3 3 3 3
13 13 12 12 14 15 15 15 15 14 13 12 12 11 11 10 9 9 10 11 13 13 13 12 12 12 12 11 10 9 9 9 8 7 7 7 7 7 6 6 6 5 5 5 5 5 4 4 4
13 12 12 13 14 15 16 15 14 14 14 13 13 13 12 12 11 11 11 11 13 14 14 14 14 13 13 12 11 10 10 10 9 9 8 8 8 8 8 8 8 7 7 7 7 7 6 6 6
13 12 12 13 14 15 15 14 14 14 14 14 14 14 14 13 12 12 12 13 14 15 15 16 16 15 14 12 12 12 11 10 10 10 9 9 9 9 9 9 9 9 8 9 9 9 9 8 8
13 12 12 13 13 14 14 15 15 14 15 15 14 15 14 13 13 13 14 14 15 16 16 16 16 16 14 13 13 13 12 12 11 10 10 10 9 10 9 10 10 10 10 10 11 11 11 11 10
12 11 12 13 13 13 14 14 15 15 15 15 14 13 13 13 13 13 14 15 15 16 17 17 16 15 15 15 14 14 13 13 12 11 10 10 9 9 9 10 10 10 10 10 11 12 13 12 12
12 11 12 13 13 13 14 14 15 15 15 15 14 14 13 13 14 14 15 16 17 18 18 18 17 16 16 16 15 14 14 13 12 11 9 9 9 9 9 10 10 10 10 10 11 11 12 13 13
12 12 12 13 13 13 14 14 15 15 15 15 14 14 13 13 13 14 15 17 18 19 18 18 18 17 17 16 15 14 14 13 12 11 10 9 9 9 9 9 9 9 10 10 10 11 11 12 12
12 12 13 13 14 14 14 14 15 15 15 15 15 15 14 14 14 15 16 18 19 20 20 19 18 16 16 15 15 14 14 14 12 11 11 9 8 8 8 8 8 8 9 9 9 9 10 11 11
12 13 14 14 14 15 15 15 15 15 16 15 15 14 14 14 15 15 16 18 20 20 20 19 18 17 15 15 15 15 14 13 12 11 10 9 8 7 7 7 8 8 7 8 8 9 10 10 11
12 13 14 14 15 16 16 16 17 16 16 15 14 12 12 12 14 15 16 17 19 20 20 19 19 18 16 15 15 13 13 13 12 11 10 9 7 7 7 7 8 8 8 8 8 9 9 10 10
12 13 14 16 15 16 16 16 16 15 15 13 12 10 9 10 11 13 16 17 18 20 19 19 20 19 16 15 14 13 12 12 11 10 9 8 8 7 7 8 8 8 9 10 9 9 9 9 10
12 12 13 16 15 16 16 15 15 14 13 12 11 10 8 8 10 11 14 15 16 18 18 19 18 17 15 15 13 12 10 10 10 8 8 8 7 7 7 8 7 8 8 8 9 9 9 10 11
12 12 13 14 16 15 15 14 14 13 12 12 11 8 7 7 9 10 12 14 15 16 16 17 16 15 14 13 12 11 10 10 9 8 7 6 6 6 6 6 6 6 6 6 7 8 9 10 10
12 12 12 14 15 15 14 13 12 12 11 11 9 7 5 6 8 9 10 12 14 14 14 16 15 14 13 13 11 10 9 9 8 7 5 5 4 4 4 5 5 5 6 6 7 7 8 9 10
12 12 12 14 14 14 13 12 11 11 10 9 8 7 5 5 5 7 9 11 13 14 14 14 14 14 14 12 10 9 8 7 7 6 5 4 3 2 2 3 3 3 4 5 6 8 8 9 10
12 12 12 13 13 13 12 11 11 10 10 9 8 6 4 4 5 6 8 10 11 12 12 12 13 13 12 10 9 8 8 7 6 6 5 4 3 2 2 1 1 2 3 5 6 7 8 9 10
12 12 13 13 13 12 11 10 11 10 9 8 7 5 3 3 3 5 7 9 10 12 12 13 12 12 10 9 9 9 8 7 6 5 4 3 3 2 1 1 1 2 4 5 6 7 8 9 10
12 12 12 12 12 11 11 10 9 9 8 8 6 5 3 2 3 4 6 8 10 11 12 11 11 11 10 9 8 8 7 7 6 5 4 3 2 2 2 2 2 3 5 6 7 8 9 10 11
12 12 11 11 11 10 11 9 8 8 8 7 6 5 2 2 3 4 6 7 8 10 11 10 10 11 11 10 9 8 8 7 6 5 4 3 2 1 1 2 3 4 6 7 8 9 10 11 12
12 10 9 9 10 10 10 9 8 8 7 6 6 5 3 2 3 5 6 6 7 9 10 11 11 12 11 10 9 8 8 7 6 5 5 4 3 2 3 4 5 6 8 9 10 11 12 13 14
12 11 9 9 9 10 11 9 8 7 6 5 5 4 3 3 4 5 6 6 7 9 10 11 12 12 11 10 9 8 7 7 6 5 4 4 4 4 4 5 6 8 9 10 11 12 13 14 15
14 13 12 11 9 8 10 10 8 7 6 5 4 4 3 4 4 5 6 6 7 9 10 11 12 12 11 10 9 8 7 7 6 5 5 4 5 6 6 7 8 9 11 12 13 14 14 15 16
15 14 14 12 10 9 10 10 8 6 5 5 4 4 4 4 5 6 6 7 7 9 10 11 12 11 11 10 9 8 8 7 6 6 6 6 7 7 8 9 10 11 13 14 15 15 16 17 18
17 16 15 14 13 10 9 10 10 7 6 5 5 5 6 6 6 7 7 8 8 9 10 11 11 11 11 10 10 9 9 8 8 8 8 9 10 10 11 11 12 13 14 15 16 17 18 19 20
18 17 16 15 14 12 11 12 12 9 8 7 6 5 6 7 7 8 8 9 9 10 10 11 11 11 11 11 10 10 10 10 10 10 11 12 12 13 14 15 15 16 16 17 18 19 20 21 22
Wind_Direction
329 328 327 325 322 321 316 312 312 312 315 319 323 317 301 287 279 253 244 234 226 221 216 213 217 220 219 212 202 184 173 166 153 143 134 125 117 113 110 107 104 102 103 108 111 112 116 119 120
326 324 324 322 321 317 312 312 311 311 312 315 319 316 297 280 272 259 244 233 222 218 217 217 219 223 225 219 208 197 184 178 170 163 154 145 138 132 124 116 112 110 111 117 122 125 128 132 132
323 323 322 321 318 310 306 309 308 309 310 313 315 314 302 293 278 253 243 230 222 215 218 223 223 226 230 227 217 210 200 191 186 184 179 170 165 161 154 147 141 136 132 136 140 146 149 152 156
321 321 320 319 313 308 306 307 307 306 307 309 311 309 299 290 277 253 241 229 224 218 220 227 228 229 232 230 224 222 213 203 199 196 193 190 188 186 182 180 180 176 173 173 176 180 180 182 182
319 319 320 317 311 308 306 305 305 304 305 305 305 303 296 287 272 253 241 232 228 224 223 225 225 230 230 226 224 224 219 213 210 207 203 202 201 200 199 202 205 207 211 212 214 220 216 211 206
318 319 317 309 308 308 307 306 305 304 303 302 301 296 289 287 274 255 240 231 226 223 222 223 226 232 229 225 226 224 223 222 222 218 215 214 213 213 214 215 219 226 233 233 232 233 232 226 223
317 317 311 308 306 306 309 310 307 305 302 299 295 289 287 281 272 255 240 233 228 224 225 225 227 230 230 230 228 227 228 228 230 231 228 229 230 226 226 227 228 235 241 240 237 236 234 230 225
318 316 313 309 306 304 309 310 308 305 302 298 294 287 283 276 267 253 240 236 231 227 227 227 228 229 227 228 231 230 232 233 233 237 239 238 237 235 235 235 237 242 243 242 241 237 237 236 232
317 316 311 308 305 304 308 309 306 305 302 298 294 287 282 274 266 255 241 234 229 229 229 228 228 227 229 231 233 235 234 237 238 242 242 244 247 243 242 241 242 245 247 245 245 240 239 238 236
317 313 308 307 305 306 308 307 305 304 303 300 296 288 281 272 260 255 242 235 229 229 229 227 228 228 232 234 234 236 236 242 247 250 249 247 249 249 249 249 247 250 252 251 251 245 242 239 239
316 313 310 308 308 308 308 307 306 304 301 299 295 289 284 274 258 250 243 236 231 231 230 229 232 232 232 232 232 236 239 245 250 253 246 251 252 256 257 258 254 253 255 255 255 251 247 245 244
314 313 311 309 309 307 306 307 307 305 301 296 292 289 282 269 257 246 242 236 230 229 229 229 230 233 231 229 231 239 242 243 249 251 247 250 257 260 261 259 261 261 260 258 257 257 251 247 246
311 311 310 310 309 308 308 308 309 305 305 298 294 285 274 263 254 243 240 232 227 227 228 227 227 229 228 228 234 237 237 240 243 248 249 250 255 257 261 260 261 265 264 264 262 259 255 251 252
308 309 310 310 311 310 310 311 309 308 309 305 298 285 267 259 251 240 233 228 227 227 225 223 225 226 228 231 233 232 235 236 238 245 248 250 258 262 267 266 268 273 274 274 274 266 259 252 254
306 308 310 310 311 311 311 310 308 311 311 310 306 289 269 257 250 237 227 227 225 224 221 221 225 226 226 229 228 231 236 234 235 243 247 249 256 264 265 270 275 274 274 275 276 276 270 263 261
307 311 312 311 312 313 315 312 311 310 313 312 308 299 274 259 246 235 227 227 224 222 220 221 224 225 226 226 227 233 237 236 236 239 243 247 254 263 273 279 280 279 277 279 279 281 277 274 273
308 306 304 307 314 315 315 313 314 313 314 314 309 298 281 253 237 233 227 223 219 216 217 219 222 224 225 225 226 232 235 237 237 241 241 244 255 270 279 278 281 281 281 282 281 284 285 283 283
286 294 299 305 313 316 317 314 315 318 320 318 317 306 276 253 233 227 222 216 215 213 214 217 218 218 217 219 225 228 229 233 234 236 242 250 261 272 279 282 285 283 285 289 289 287 285 285 284
285 291 295 301 311 316 317 315 316 321 324 324 322 312 271 245 227 220 218 215 215 214 213 213 215 213 215 218 221 221 223 223 223 230 236 244 255 268 277 286 289 287 289 290 294 295 291 288 288
285 289 293 298 308 314 316 318 319 321 324 324 319 308 276 237 221 219 221 217 214 216 213 209 207 204 206 210 210 210 208 207 210 217 222 231 240 254 282 295 294 297 306 305 303 303 299 295 292
281 285 287 294 303 308 310 317 320 321 322 328 327 320 282 235 232 224 210 209 210 208 202 204 203 200 199 199 197 196 193 193 200 203 207 212 209 229 255 263 316 345 341 328 320 316 311 306 302
274 277 282 289 297 305 308 311 315 320 319 320 324 326 301 252 237 226 209 207 207 202 199 199 196 190 190 190 189 188 184 185 188 189 194 196 201 220 257 285 309 327 330 327 325 321 318 314 310
268 273 278 285 289 295 302 304 308 315 315 316 321 327 314 264 237 220 207 204 200 196 192 189 186 185 184 184 181 180 180 180 180 181 183 186 199 233 274 276 289 310 320 323 322 318 315 313 311
266 271 277 282 288 293 296 301 303 305 310 312 314 318 301 258 226 206 200 195 191 194 191 188 185 183 180 178 177 177 175 177 177 177 176 177 185 210 265 288 307 315 318 319 319 316 313 311 310
262 268 283 291 294 292 291 293 295 294 299 303 305 305 292 227 197 195 198 195 194 193 193 192 189 186 182 179 178 176 174 177 179 182 186 197 216 252 280 295 307 316 318 316 315 314 312 310 310
254 258 255 263 279 286 288 288 291 289 293 296 292 288 270 232 207 203 199 198 196 192 194 193 189 186 185 183 181 180 180 183 187 193 203 220 245 268 284 294 303 311 313 314 315 314 312 311 310
250 253 252 261 273 281 287 287 283 282 284 289 282 275 261 237 222 210 202 199 192 190 189 186 185 186 188 187 188 187 190 196 203 212 225 245 264 275 283 290 298 304 308 312 314 314 313 312 312
245 249 252 256 264 275 286 291 282 277 279 279 275 262 253 240 227 213 209 200 192 190 188 187 187 189 193 196 199 204 209 213 220 233 247 261 271 278 283 290 297 303 307 310 312 313 313 311 311
245 248 251 256 255 258 271 276 272 271 269 267 272 262 248 237 226 219 212 205 199 195 193 193 194 198 202 207 212 216 221 227 237 247 257 267 275 281 287 293 297 301 303 306 309 311 310 310 310
243 248 252 254 259 259 259 270 265 263 260 259 264 256 244 234 225 218 213 210 208 204 202 202 204 207 212 217 221 225 232 241 249 257 264 270 276 280 286 290 294 297 300 303 307 308 309 309 310
Height
5914 5913 5912 5912 5912 5911 5910 5909 5908 5907 5906 5905 5904 5903 5902 5901 5901 5903 5901 5899 5900 5900 5900 5901 5901 5902 5902 5902 5903 5903 5903 5903 5903 5903 5904 5904 5904 5904 5904 5904 5904 5904 5905 5905 5905 5905 5905 5905 5905
5912 5911 5911 5910 5910 5910 5908 5906 5905 5905 5904 5903 5901 5900 5899 5898 5898 5898 5897 5897 5898 5898 5899 5899 5900 5901 5901 5902 5902 5902 5902 5902 5903 5903 5903 5903 5903 5904 5904 5904 5904 5905 5905 5905 5905 5905 5905 5905 5906
5910 5909 5909 5908 5907 5907 5906 5904 5903 5902 5901 5900 5899 5898 5897 5895 5895 5895 5895 5895 5896 5896 5897 5898 5899 5899 5900 5900 5901 5901 5901 5902 5902 5902 5903 5903 5903 5903 5903 5904 5904 5904 5905 5905 5905 5905 5905 5905 5905
5908 5907 5907 5907 5905 5904 5902 5901 5900 5899 5899 5898 5897 5895 5894 5893 5892 5892 5892 5893 5893 5894 5895 5896 5897 5897 5898 5899 5899 5900 5900 5901 5901 5901 5902 5902 5902 5902 5903 5903 5903 5904 5904 5905 5905 5905 5905 5905 5905
5906 5905 5905 5904 5902 5901 5899 5898 5898 5896 5896 5895 5894 5893 5892 5891 5890 5889 5889 5890 5890 5891 5892 5893 5894 5896 5896 5897 5897 5898 5899 5899 5900 5900 5900 5901 5901 5901 5902 5902 5903 5903 5903 5904 5904 5904 5904 5905 5905
5904 5903 5903 5902 5899 5898 5896 5895 5894 5893 5893 5892 5891 5890 5889 5888 5887 5887 5887 5887 5887 5888 5889 5891 5892 5893 5894 5895 5895 5896 5897 5898 5898 5899 5899 5899 5900 5900 5900 5901 5901 5902 5902 5903 5903 5903 5904 5904 5904
5902 5901 5900 5899 5897 5895 5894 5892 5891 5890 5889 5888 5888 5887 5886 5885 5884 5884 5884 5884 5885 5885 5886 5888 5889 5890 5891 5892 5893 5894 5895 5896 5896 5897 5897 5897 5898 5898 5898 5899 5900 5900 5900 5901 5901 5902 5902 5902 5903
5899 5899 5897 5896 5894 5893 5891 5889 5888 5887 5886 5885 5884 5883 5882 5882 5881 5880 5881 5881 5882 5882 5883 5885 5886 5887 5889 5890 5891 5892 5893 5893 5894 5895 5895 5895 5895 5896 5896 5897 5897 5898 5898 5898 5899 5900 5900 5901 5901
5896 5897 5895 5893 5892 5890 5888 5887 5885 5884 5882 5881 5880 5879 5878 5878 5877 5877 5878 5878 5879 5879 5881 5882 5884 5885 5886 5887 5888 5889 5890 5891 5891 5892 5892 5892 5893 5893 5893 5894 5895 5895 5895 5896 5896 5897 5898 5898 5899
5894 5894 5893 5891 5889 5887 5885 5884 5882 5880 5879 5877 5876 5874 5874 5873 5874 5874 5874 5875 5876 5877 5878 5880 5881 5882 5883 5884 5886 5887 5888 5888 5888 5889 5889 5889 5890 5890 5891 5891 5891 5892 5892 5893 5893 5894 5895 5895 5896
5892 5891 5889 5887 5886 5884 5883 5881 5879 5877 5875 5873 5872 5871 5870 5869 5869 5870 5871 5872 5873 5874 5875 5877 5878 5880 5881 5882 5883 5884 5885 5886 5886 5886 5887 5887 5887 5888 5888 5888 5888 5889 5889 5889 5890 5891 5892 5892 5893
5890 5888 5886 5885 5883 5882 5880 5878 5876 5873 5872 5870 5868 5866 5866 5865 5865 5866 5867 5868 5869 5870 5872 5874 5875 5877 5877 5879 5880 5882 5883 5883 5883 5884 5884 5885 5885 5885 5885 5885 5886 5886 5886 5887 5887 5888 5889 5889 5890
5887 5886 5884 5882 5881 5879 5877 5875 5873 5870 5868 5865 5863 5862 5861 5861 5861 5861 5863 5864 5865 5867 5869 5871 5872 5874 5875 5876 5877 5879 5880 5881 5881 5882 5882 5882 5882 5883 5883 5883 5883 5884 5884 5884 5884 5885 5885 5886 5887
5885 5884 5882 5880 5878 5877 5875 5872 5870 5867 5864 5862 5859 5857 5856 5856 5856 5857 5858 5860 5862 5864 5866 5868 5869 5871 5872 5874 5875 5877 5877 5878 5879 5880 5880 5881 5880 5881 5881 5882 5882 5882 5882 5882 5882 5883 5883 5883 5884
5883 5882 5880 5878 5876 5874 5872 5870 5867 5864 5861 5858 5856 5853 5852 5851 5852 5853 5854 5856 5858 5860 5863 5865 5866 5868 5870 5871 5873 5874 5875 5876 5876 5877 5878 5879 5879 5879 5879 5880 5880 5880 5880 5880 5880 5880 5880 5881 5881
5880 5880 5879 5876 5874 5871 5871 5868 5864 5861 5858 5856 5853 5851 5850 5849 5849 5849 5851 5853 5855 5857 5859 5862 5864 5865 5867 5869 5871 5872 5873 5873 5874 5875 5876 5877 5877 5877 5878 5878 5878 5878 5878 5878 5878 5878 5878 5878 5878
5879 5879 5877 5874 5871 5869 5867 5864 5861 5858 5856 5853 5851 5848 5847 5847 5847 5847 5847 5849 5852 5854 5856 5859 5861 5863 5864 5866 5868 5869 5870 5872 5873 5874 5875 5875 5876 5876 5876 5876 5876 5876 5876 5876 5876 5875 5876 5876 5876
5877 5876 5874 5872 5868 5866 5864 5861 5859 5856 5854 5851 5848 5846 5845 5845 5845 5846 5846 5848 5850 5852 5854 5856 5858 5860 5862 5864 5866 5867 5869 5870 5871 5873 5873 5874 5874 5874 5874 5874 5874 5874 5874 5874 5874 5874 5873 5874 5874
5873 5872 5871 5869 5866 5864 5862 5859 5857 5855 5852 5850 5847 5845 5844 5844 5844 5844 5845 5846 5848 5850 5851 5853 5855 5858 5860 5862 5864 5866 5867 5868 5870 5871 5872 5872 5873 5873 5872 5872 5872 5872 5872 5872 5872 5872 5871 5871 5871
5870 5869 5868 5866 5864 5862 5860 5858 5855 5853 5851 5849 5846 5844 5843 5843 5843 5843 5844 5845 5847 5848 5849 5851 5854 5856 5858 5861 5862 5864 5866 5867 5868 5870 5870 5871 5871 5871 5871 5871 5871 5871 5871 5870 5870 5870 5869 5869 5868
5867 5866 5865 5864 5862 5860 5858 5857 5854 5852 5850 5848 5846 5844 5842 5842 5842 5842 5843 5844 5845 5847 5849 5851 5853 5855 5857 5859 5861 5863 5864 5866 5867 5869 5870 5870 5870 5870 5870 5870 5870 5870 5869 5869 5869 5868 5867 5867 5866
5864 5863 5862 5861 5860 5859 5857 5857 5854 5851 5849 5847 5845 5844 5843 5842 5842 5842 5842 5843 5845 5846 5848 5850 5852 5855 5857 5859 5860 5862 5864 5865 5867 5868 5869 5869 5869 5870 5870 5870 5869 5869 5869 5868 5867 5867 5865 5865 5863
5860 5860 5859 5858 5857 5857 5855 5855 5854 5850 5849 5847 5845 5844 5843 5842 5842 5842 5842 5843 5844 5846 5848 5850 5852 5854 5856 5858 5860 5862 5863 5865 5866 5867 5868 5868 5868 5869 5869 5869 5869 5868 5868 5867 5866 5865 5864 5862 5861
5857 5857 5856 5856 5855 5856 5854 5853 5853 5850 5848 5846 5845 5843 5843 5842 5842 5841 5842 5843 5845 5846 5848 5850 5852 5854 5856 5858 5860 5861 5863 5864 5865 5866 5867 5867 5868 5868 5868 5868 5867 5867 5866 5865 5864 5862 5861 5860 5858
5854 5855 5856 5855 5855 5854 5852 5851 5851 5848 5847 5845 5844 5843 5843 5842 5842 5842 5843 5844 5845 5847 5848 5850 5852 5854 5856 5858 5860 5861 5862 5864 5864 5865 5866 5867 5867 5867 5867 5866 5866 5865 5864 5863 5861 5860 5858 5857 5855
5851 5852 5854 5855 5854 5853 5850 5849 5849 5846 5845 5844 5843 5843 5842 5843 5843 5843 5844 5845 5845 5846 5848 5849 5851 5854 5856 5857 5859 5860 5862 5863 5864 5864 5865 5865 5866 5865 5865 5865 5864 5863 5861 5860 5859 5857 5855 5853 5852
5847 5848 5850 5850 5850 5850 5849 5847 5846 5844 5844 5843 5842 5842 5842 5842 5843 5843 5844 5844 5845 5846 5848 5849 5851 5853 5855 5857 5858 5859 5861 5862 5863 5863 5864 5864 5864 5863 5863 5862 5861 5860 5859 5857 5855 5854 5852 5850 5848
5844 5845 5846 5847 5847 5848 5848 5846 5845 5843 5842 5842 5841 5841 5841 5841 5842 5843 5843 5844 5845 5846 5848 5849 5851 5853 5854 5856 5857 5859 5860 5861 5861 5862 5862 5862 5862 5861 5861 5860 5859 5857 5856 5854 5852 5850 5848 5846 5843
5840 5841 5842 5843 5844 5845 5846 5847 5842 5841 5840 5840 5840 5840 5840 5841 5841 5842 5843 5844 5845 5846 5848 5849 5850 5852 5853 5855 5856 5857 5858 5859 5859 5859 5860 5860 5859 5859 5858 5857 5855 5854 5852 5850 5848 5846 5844 5841 5839
5835 5837 5838 5840 5840 5840 5841 5844 5838 5838 5838 5838 5838 5838 5838 5839 5840 5841 5842 5843 5845 5846 5847 5848 5850 5851 5852 5853 5854 5855 5856 5857 5857 5857 5857 5857 5856 5855 5854 5853 5851 5850 5848 5846 5844 5841 5839 5836 5834